Accueil
METAR-TAF:

METAR-TAF

Aéroports :

Whiteman Air Force Base

Knob Noster, Missouri, États-Unis

latitude: 38-44N, longitude: 093-33W, altitude: 265 m

Observation

Le bulletin a été fait il y a 39 minutes, à 14:56 UTC
Vent calme
Température 6°C
Humidité 100%
Pression 1009 hPa
Visibilité: 16.1 km
Ciel couvert à une hauteur de 1300 ft

METAR: KSZL 171456Z AUTO 00000KT 10SM OVC013 06/06 A2981 RMK AO2 CIG 012 RWY19 SLP102 60000 T00570056 55000

Heure: 09:35 (15:35 UTC)


TAF: absent

Observations et prévisions météorologiques de plus de 4000 aéroports (messages METAR et TAF).

Les stations disponibles sont représentées par des disques jaunes et rouges sur la carte.

Passer la souris dessus pour voir le nom de la station.

Cliquer dessus pour voir les observations et prévisions météorologiques.

Pour changer de carte: cliquez sur les boutons verts avec une croix noire pour zoomer, sur le bouton vert avec un tiret pour effectuer un zoom arrière, ou sur les flèches vertes pour les cartes adjacentes.


METAR-TAF: